Location: Newark
(40.9833°N, 0.0333°W)
Time: 01:20:09
(UTC+00:00)

Tiangong 2 - Visible Passes

Search period start: 20 March 2019 00:00
Search period end: 30 March 2019 00:00
Orbit: 379 x 390 km, 42.8° (Epoch: 19 March)

Date Brightness Start Highest point End Pass type
(mag) Time Alt. Az. Time Alt. Az. Time Alt. Az.
20 Mar 4.3 03:31:37 14° E 03:31:37 14° E 03:32:09 10° E visible
20 Mar 1.0 05:03:50 20° W 05:05:51 71° SSW 05:09:01 10° ESE visible
21 Mar 2.1 04:07:14 45° E 04:07:14 45° E 04:09:33 10° E visible
22 Mar 1.5 04:42:56 38° WSW 04:43:34 45° SSW 04:46:37 10° SE visible
23 Mar 3.8 03:46:32 16° ESE 03:46:32 16° ESE 03:47:17 10° ESE visible
23 Mar 3.0 05:18:47 11° WSW 05:20:30 16° SW 05:22:34 10° S visible
24 Mar 3.0 04:22:31 20° S 04:22:31 20° S 04:23:55 10° SSE visible
29 Mar 3.3 19:09:54 10° SSE 19:10:58 11° SE 19:11:15 11° SE visible
